Погода в Хабаровске

Погода в Хабаровске : погода сейчас, прогноз погоды и архив. Всё, что Вы хотите узнать о погоде в Хабаровске!

Хотите узнать прогноз погоды в Хабаровске? Тогда Вам сюда: Погода в Хабаровске

Поиск расширенной информации на нашем сайте:

Другие новости

Новости СМИ2

Главная страница сайта

Новости сайта

03.07.2017

Напоминаем, что на нашем специализированном сайте Метеоцентр.Азия вы можете получить высокодетализированные автоматические прогнозы погоды по пунктам России, СНГ и мира в авиационном формате (включающие направление и скорость ветра, видимость, явления погоды, количество и форму облачности, нижнюю и верхнюю границу облачности).


Погода в Хабаровске - сегодня

Время (UTC), дата Ветер
(°,м/с) 
Видим.   Явления Облачность Т
(°С)
Тd
(°С)
f(%) Тe
(°С)
Pmin
(гПа)
dP
(гПа)
Po
(мм)
O2
(г/м3)
Тmin Tmax R s Состояние
почвы
15 09.12.17 тихо ()   3800 м  дым  6/0 верхняя 
[Ci fib]
-24.6 -27.4 78 -25  1018.8  757  337           
18 09.12.17 140 (ЮВ) 8000 м  дым  3/0 верхняя 
[Ci fib]
-26.2 -29.4 74 -27  1019.3  0.5  757  339           
21 09.12.17 110 (В) 10 км    4/0 верхняя 
[Ci fib]
-27.6 -30.9 73 -28  1019.1  -0.3  757  341  -28.8         
00 10.12.17 020 (С) 10 км    9/0 верхняя 
[Ci fib]
-26.3 -29.6 74 -30  1019.3  0.3  757  339           
03 10.12.17 030 (СВ) 10 км    9/0 верхняя 
[Ci fib]
-20 -22.8 78 -25  1017.5  -1.4  756  330           
06 10.12.17 010 (С) 10 км    9/0 средняя, верхняя 
[Ac trans|Ci fib]
-17.6 -21.5 72 -23  1016.5  -1.2  755  327           
09 10.12.17 020 (С) 10 км    9/0 средняя 
[Ac trans]
-20.8 -24.5 72 -27  1016.6  0.2  755  331    -17.2       
12 10.12.17 010 (С) 10 км    10/0 средняя 
[As trans]
-20.9 -24.4 73 -27  1016.5  -0.4  755  331           
15 10.12.17 030 (СВ) 10 км    10/10 1000 м 
[Sc|Ns]
-18.9 -22.8 71 -25  1014.6  -1.8  754  328           
18 10.12.17 010 (С) 8000 м  слаб. ливневой дождь  10/8 1200 м кучево-дожд., средняя 
[Cb cap|As op]
-17.8 -21.4 73 -24  1013.5  -1.3  753  326           
21 10.12.17 030 (СВ) 10 км  в посл. час ливневой снег  10/3 1000 м кучево-дожд., средняя 
[Cb cap|As trans]
-15.5 -19.2 73 -22  1011.9  -1.6  752  323  -21.3    0.0     
00 11.12.17 040 (СВ) 11-15{15}  1100 м  сильная метель{ливн. осадки}  10/5 600 м кучево-дожд., средняя 
[Cb cap|As op]
-14.4 -17.6 77 -23  1011  -0.8  751  321           
03 11.12.17 030 (СВ) 13-17{19}  0300 м  ливневой снег  10/5 800 м кучево-дожд., средняя 
[Cb cap|As op]
-12.8 -16.4 74 -22  1008.1  -2.8  749  318           
06 11.12.17 040 (СВ) 14-17{20}  0100 м  ливневой снег  ?/?  
-12.9 -14.5 88 -22  1006.6  -1.2  748  318           
09 11.12.17 040 (СВ) 13-18{21}  0100 м  ливневой снег  ?/?  
-13.3 -15 87 -22  1005.9  -1  748  318    -12.6       
12 11.12.17 040 (СВ) 12-16{21}  0300 м  ливневой снег  ?/?  
-13.2 -14.9 87 -22  1005  -0.8  747  318           
15 11.12.17 040 (СВ) 14-18{19}  0300 м  ливневой снег  10/10 660 м кучево-дожд. 
[Cb cap]
-13 -14.9 86 -22  1004.6  -0.6  747  317           
18 11.12.17 030 (СВ) 12-16{18}  0800 м  метель{ливн. осадки}  6/4 540 м кучево-дожд., средняя 
[Cb cap|Ac trans]
-13.2 -16.2 78 -22  1004.6  0.2  747  318           
21 11.12.17 030 (СВ) 7{16}  10 км  метель  6/4 420 м средняя 
[St|Ac trans]
-13.4 -16.4 78 -20  1005.9  1.3  748  318  -13.6         
00 12.12.17 360 (С) 5000 м  слаб. снег  9/5 420 м средняя, верхняя 
[Sc|Ac trans|Ci fib]
-13.6 -15.9 83 -18  1008.1  749  319           
03 12.12.17 330 (СЗ) 10 км  {снег}  9/5 870 м средняя 
[Sc|Ac trans]
-11.9 -15.4 75 -17  1008.8  0.8  750  317           
06 12.12.17 340 (С) 10 км  в посл. час снег  9/5 1080 м средняя 
[Sc|Ac trans]
-10.3 -15.7 65 -12  1010.5  1.7  751  316           
09 12.12.17 260 (З) 10 км    9/4 1380 м средняя 
[Sc|Ac trans]
-10.9 -14.5 75 -14  1012.7  2.1  753  317    -10.1       
12 12.12.17 250 (З) 10 км    9/0 средняя 
[Ac trans]
-12.7 -16.9 71 -17  1014  1.3  754  320           
15 12.12.17 230 (ЮЗ) 3800 м  слаб. снег  10/5 1000 м средняя 
[Sc|Ac As]
-15.5 -19.1 74 -22  1015.8  1.6  755  324           
Время (UTC), дата Ветер
(°,м/с) 
Видим.   Явления Облачность Т
(°С)
Тd
(°С)
f(%) Тe
(°С)
Pmin
(гПа)
dP
(гПа)
Po
(мм)
O2
(г/м3)
Тmin Tmax R s Состояние
почвы

Для получения пояснительной информации подведите курсор к названию столбца.

ПОГОДА в Хабаровске - архив

Всё, что Вы хотите узнать о погоде в Хабаровске - удобно и подробно!

Выберите нужную дату (начиная с 1 января 2015* года) и нажмите кнопку "Найти".
Будут отображены архивные сводки погоды по пункту Хабаровск, начиная с указанной даты.


Отображать данные в формате CSV (для использования в таблицах Excel)


Внимание! Наш архив погоды предназначен исключительно для личного некоммерческого использования в познавательных целях. Если Вам необходимы официальные справки о состоянии погоды (для производственных, юридических, коммерческих и т.п. целей), обращайтесь в органы Росгидромета.

*Примечание: данная дата относится к архиву по метеостанциям СССР (Россия, СНГ, Балтия).
Архив по метеостанциям Зарубежной Европы и Азии (кроме Китая) хранится 10 дней, по другим регионам земного шара (Китай, Африка, Америка, Австралия, Океания) - 1 день.

Хабаровск - район местоположения метеостанции


Название, широта, долгота, высота метеостанции:
Хабаровск 48.5°ш. 135.2°д. 76 м над ур. моря [Российская Федерация]

Дополнительная информация

В oтличие oт бoльшинства пoгoдных сайтoв мы публикуем пoдрoбную метеoинфoрмацию в детальнoм прoфессиoнальнoм фoрмате.

Характеристики температуры и влажнoсти вoздуха измеряются на высoте 2 м в тени вдали oт зданий и деревьев.
Скoрoсть ветра измеряется на высoте 10 м (на урoвне рoста челoвека скoрoсть ветра ниже в 1.5-2 раза). Если метеoстанция нахoдится в гoрoде или в лесу, тo скoрoсть ветра занижена на 2-4 м/с пo сравнению с oткрытым местoм. Скoрoсть ветра над акватoриями крупных рек и oзёр, а также на вершинах хoлмoв на 2-5 м/с выше, чем в oбычных услoвиях.
Атмoсфернoе давление в разных тoчках местнoсти мoжет значительнo oтличаться oт давления на метеoстанции, в зависимoсти oт услoвий рельефа (при пoдъёме на 10 м давление пoнижается примернo на 1 мм рт.ст.).